Location: Camaret
(48.2753°N, 4.5961°W)
Time: 01:12:36
(UTC+00:00)

CZ-2C R/B - Pass Details

Date: 29 October 2020
Orbit: 703 x 909 km, 98.1° (Epoch: 26 November)

Event Time Altitude Azimuth Distance (km) Brightness Sun altitude
Rises 17:37:14 0° 127° (SE) 3,517 6.0 -6.2°
Reaches altitude 10° 17:40:02 10° 115° (ESE) 2,565 5.3 -6.6°
Maximum altitude 17:44:38 26° 61° (ENE) 1,670 4.2 -7.4°
Drops below altitude 10° 17:49:08 10° 8° (N) 2,495 5.5 -8.1°
Sets 17:51:48 0° 356° (N) 3,403 6.3 -8.6°
